Location: Caltech
(34.1382°N, 118.1253°W)
Time: 03:18:59
(UTC-07:00)

Iridium 12 - Visible Passes

Search period start: 28 July 2014 00:00
Search period end: 07 August 2014 00:00
Orbit: 776 x 779 km, 86.4° (Epoch: 27 July)

Date Brightness Start Highest point End Pass type
(mag) Time Alt. Az. Time Alt. Az. Time Alt. Az.
28 Jul 7.4 21:42:21 10° NNW 21:46:45 28° W 21:51:08 10° SW visible
29 Jul 6.2 21:08:19 10° NNW 21:13:24 55° W 21:18:27 10° SSW visible
30 Jul 5.5 20:34:42 10° N 20:39:56 76° E 20:45:07 10° S visible
31 Jul 8.1 21:43:06 10° NW 21:46:42 19° W 21:50:18 10° SW visible
01 Aug 7.0 21:08:40 10° NNW 21:13:25 37° W 21:18:08 10° SSW visible
02 Aug 5.8 20:34:49 10° N 20:40:01 73° W 20:45:11 10° S visible
03 Aug 8.4 21:44:25 10° NW 21:46:36 13° W 21:48:47 10° WSW visible
04 Aug 7.8 21:09:13 10° NNW 21:13:23 25° W 21:17:33 10° SW visible
05 Aug 6.6 20:35:04 10° NNW 20:40:03 48° W 20:45:01 10° SSW visible
